User: anonymous   Login
Location: Unspecified
(0.0000°N, 0.0000°E)
Time: 23:58:03
(UTC+00:00)
Language:

STARLINK-31056 - Orbit

View from above orbital plane
View from above orbital plane
View from above satellite
View from above satellite

Ground track
Ground track

The orbit is defined by the following mean orbital elements,

1 58550U          26145.47184375 +.00000000 +00000-0 +11687-3 0 00009
2 58550  53.1611  65.9130 0001111  89.6229 270.4900 15.30209198    06
Epoch (UTC): 25 May 2026 11:19:27
Eccentricity: 0.0001111
inclination: 53.1611°
perigee height: 474 km
apogee height: 476 km
right ascension of ascending node: 65.9130°
argument of perigee: 89.6229°
revolutions per day: 15.30209198
mean anomaly at epoch: 270.4900°

The dashed part of the orbit path shows where the satellite is in the earth's shadow,  

DLR